Location: ??? ???
(33.4974°N, 35.4618°E)
Time: 12:15:23
(UTC+00:00)

Atlas Centaur 2 - Pass Details

Date: 29 October 2020
Orbit: 459 x 1309 km, 30.4° (Epoch: 26 November)

Event Time Altitude Azimuth Distance (km) Brightness Sun altitude
Rises 15:29:14 0° 256° (WSW) 4,017 8.1 -9.0°
Reaches altitude 10° 15:31:57 10° 254° (WSW) 3,142 6.8 -9.6°
Maximum altitude 15:40:00 69° 173° (S) 1,371 3.3 -11.3°
Enters shadow 15:47:16 15° 93° (E) 2,921 4.3 -12.8°
